RH
99 94 99 96 97 94 93 98 99 98 99 99 100 70 41 33 33 33 32 31 28 28 31 36 41 46 57 51 52 61 69 73 75 82 69 65 66 64 71 66 66 62 53 45 40 51 44
97 98 97 96 95 98 99 99 99 99 99 99 100 90 42 31 31 31 31 30 28 25 32 31 38 46 55 55 57 68 71 76 74 80 74 62 69 74 74 72 63 57 58 47 38 43 44
99 98 98 99 97 96 99 96 100 99 98 99 100 91 46 31 29 30 30 28 27 24 33 36 39 49 53 52 60 67 71 75 79 75 68 74 74 70 80 77 64 59 89 58 44 42 44
100 99 99 96 97 97 95 98 100 99 98 97 99 68 37 29 28 29 27 26 25 24 37 37 41 54 49 54 60 74 78 84 84 82 77 76 79 82 94 66 75 64 60 66 39 39 38
100 99 98 99 98 96 97 96 96 96 95 93 92 52 39 35 30 26 24 23 23 31 41 45 53 52 44 59 65 75 76 73 79 80 80 72 69 62 65 71 82 76 69 59 46 37 35
100 100 98 99 100 98 98 98 96 90 77 67 78 49 38 40 34 30 25 22 27 44 49 49 50 46 47 45 64 73 76 77 68 67 64 60 62 61 56 68 72 99 65 57 51 40 36
100 100 100 98 98 99 100 99 95 91 72 64 67 43 39 37 35 41 26 28 32 34 39 32 33 37 39 68 68 68 73 66 60 61 67 64 68 70 55 59 64 65 81 62 47 39 38
95 100 100 99 98 100 98 94 98 79 68 64 59 40 39 40 38 40 36 41 63 56 36 35 40 43 46 58 50 56 74 59 64 66 66 71 83 56 60 62 64 68 80 63 48 40 42
96 95 98 99 98 98 96 89 70 71 70 71 59 38 38 41 42 43 46 60 59 60 39 33 35 32 35 49 40 41 62 59 59 65 66 80 75 61 68 64 65 60 90 61 43 44 44
97 94 99 98 97 94 87 79 68 70 68 60 51 41 40 38 38 46 55 49 54 47 46 31 27 32 35 40 39 49 60 46 56 55 64 57 62 66 63 58 56 62 50 56 48 51 41
95 95 98 86 83 85 86 85 68 59 67 64 48 40 44 39 44 43 41 53 54 41 79 24 26 30 32 36 34 39 61 42 41 39 44 45 56 67 68 67 58 53 41 43 45 58 52
87 88 88 86 84 83 82 78 68 60 56 60 45 37 44 42 50 46 51 52 43 65 71 46 32 39 32 31 31 34 37 36 36 38 38 43 44 47 48 50 60 48 45 45 47 59 69
84 84 87 89 90 89 87 83 79 62 50 44 40 33 45 48 52 50 55 52 73 67 30 38 38 40 39 34 33 37 38 39 45 59 38 37 40 40 46 51 49 46 49 69 71 80 58
82 82 83 86 89 87 90 90 84 76 48 38 35 40 47 56 53 53 54 46 54 31 30 38 44 39 35 36 34 36 36 31 43 41 40 43 52 36 41 42 42 44 47 63 62 60 54
100 94 94 87 84 86 87 92 91 83 73 40 38 50 62 55 53 57 48 71 40 29 38 42 38 34 31 33 36 34 35 33 40 44 41 35 32 37 45 42 41 44 48 42 60 50 48
97 97 99 98 85 82 84 87 92 90 80 60 58 64 65 50 50 50 50 58 35 41 44 48 33 37 32 28 32 32 30 36 38 44 46 39 37 33 40 43 40 36 38 49 49 57 48
97 96 97 98 90 86 79 82 87 90 82 60 56 41 61 51 50 44 68 46 41 44 43 45 38 37 34 32 40 33 30 34 44 47 48 41 47 33 40 36 31 42 37 37 41 41 39
84 93 93 98 96 100 98 91 92 99 82 67 72 38 58 55 48 53 46 38 40 44 48 48 47 40 34 35 40 37 35 32 45 52 46 41 42 44 30 38 42 40 36 26 32 34 37
93 91 84 90 87 88 87 92 100 100 97 89 73 61 64 59 51 47 39 41 43 45 46 51 48 46 40 38 39 40 42 45 54 47 40 40 38 40 31 41 47 42 37 38 37 36 36
86 89 88 92 92 82 82 80 86 99 100 88 80 61 51 62 56 42 40 39 38 51 44 47 44 44 46 46 43 42 41 48 57 50 61 50 38 36 27 25 35 38 42 40 36 39 24
69 78 84 85 82 86 79 82 84 90 99 99 81 52 58 51 55 46 41 36 40 38 53 51 49 48 44 44 44 47 43 42 58 57 54 45 43 51 39 37 37 36 30 41 46 30 25
76 71 68 78 82 82 81 76 82 86 89 100 86 67 57 58 50 52 51 43 43 40 44 52 54 38 45 41 33 33 39 41 36 51 49 51 44 50 38 42 44 46 38 35 37 36 32
74 78 74 69 80 82 80 75 75 82 91 100 91 89 69 58 50 53 40 41 44 42 39 37 46 42 52 45 36 40 38 42 39 42 45 47 48 48 41 43 41 38 32 40 34 35 28
66 70 69 72 67 88 88 74 76 76 83 99 98 99 88 82 61 46 43 48 44 46 36 45 45 42 43 48 46 47 49 54 52 57 49 51 47 51 53 42 48 35 44 41 34 36 36
70 71 74 71 73 78 79 92 86 86 84 90 98 98 97 96 74 61 50 46 44 44 46 41 47 41 47 41 42 41 41 50 62 65 62 55 47 46 54 42 32 38 43 42 38 31 32
70 70 71 71 69 85 83 82 91 93 90 90 93 99 97 98 92 74 66 55 53 44 49 51 60 57 49 44 42 40 37 36 52 71 70 63 53 48 60 55 45 34 39 38 36 35 37
69 70 71 72 62 82 82 84 87 92 94 96 95 93 96 98 84 78 81 69 48 42 43 61 67 64 57 51 48 48 38 38 43 55 79 72 66 60 52 56 40 38 39 39 39 37 43
70 70 72 70 67 71 84 87 87 89 88 96 91 90 97 92 89 80 81 78 59 45 44 50 59 64 65 59 50 46 43 40 43 47 62 60 63 62 57 60 59 39 43 41 42 52 46
71 70 74 76 77 78 85 92 91 86 90 91 98 89 92 98 85 78 80 77 95 74 42 52 45 59 52 56 57 47 50 52 40 41 58 51 41 44 42 42 40 39 41 45 45 47 51
Wind_Speed
15 15 16 16 17 18 18 19 19 19 18 16 13 10 9 7 8 8 10 11 12 12 12 11 10 10 6 4 6 11 9 6 6 2 2 1 3 3 3 6 8 10 4 12 10 3 7
14 15 15 16 16 17 18 19 20 20 20 19 16 13 10 9 10 10 11 12 13 14 15 12 8 7 2 8 5 12 4 6 5 3 1 3 3 2 2 5 11 7 7 9 14 9 6
14 15 15 16 17 17 19 20 21 21 21 21 19 16 11 11 12 13 14 14 15 16 14 8 6 2 3 5 6 9 2 3 3 0 1 3 4 2 2 3 1 5 7 11 15 12 7
14 14 15 16 17 18 18 20 21 21 22 23 21 17 12 10 11 14 16 16 17 16 8 4 3 1 4 4 4 7 2 2 2 1 1 5 6 1 0 4 2 5 7 10 9 15 7
14 15 16 17 17 18 19 20 20 21 22 24 24 17 14 11 11 14 16 16 16 7 4 1 2 3 2 2 3 2 3 0 1 1 2 5 6 2 5 6 3 5 5 10 3 12 8
14 15 16 17 18 18 20 20 21 22 24 27 26 17 13 12 11 14 14 12 6 1 2 2 1 3 4 1 1 3 2 1 2 1 4 4 2 3 4 4 4 2 5 5 10 6 17
16 16 17 18 19 19 20 21 22 23 25 28 29 16 12 12 13 11 10 1 2 2 2 3 3 4 3 2 3 4 2 2 1 4 2 1 5 3 2 2 5 6 7 6 7 6 11
15 17 18 19 19 21 21 20 22 24 27 30 31 15 12 11 11 8 5 3 2 1 5 2 2 5 3 3 2 5 2 2 0 2 3 1 3 1 1 3 6 6 4 8 6 5 10
15 16 17 19 19 20 21 23 23 25 27 31 31 16 14 12 5 5 6 4 2 1 3 1 2 3 1 5 3 2 6 2 2 2 3 5 3 5 2 4 8 6 4 7 3 6 4
15 16 17 18 19 22 23 24 25 26 28 30 29 16 15 11 2 3 2 2 1 0 2 1 2 1 2 1 3 2 8 3 3 3 2 3 2 3 4 6 8 4 9 11 7 7 8
16 17 18 22 25 26 26 24 27 27 29 30 29 16 13 8 5 1 0 1 1 1 2 2 1 1 2 3 4 3 2 1 5 1 3 3 3 4 3 5 6 3 5 7 6 4 4
16 17 19 21 23 25 27 29 28 28 29 30 29 16 9 6 4 4 2 1 0 1 3 3 3 3 2 1 1 3 2 3 2 3 2 0 1 3 3 3 2 6 3 4 4 4 5
16 18 19 21 23 23 25 27 30 30 30 29 27 17 6 6 2 3 3 3 1 1 2 3 3 4 3 3 2 4 2 1 1 3 3 2 3 2 2 4 3 4 4 2 3 3 1
15 17 18 19 20 22 24 25 28 31 30 29 25 12 4 3 4 4 2 2 1 1 3 1 2 5 3 4 1 3 3 2 2 2 1 3 3 4 5 3 2 6 3 3 0 3 3
12 15 17 18 19 20 22 24 26 29 32 30 23 8 2 4 3 4 3 1 3 4 1 1 2 3 2 1 2 4 1 3 1 1 3 2 1 2 2 1 2 4 5 2 2 1 3
16 16 16 18 19 20 21 23 25 28 31 29 16 5 1 1 2 2 2 4 3 2 3 2 1 1 3 3 3 2 2 1 2 1 3 0 2 1 2 2 1 3 2 3 2 2 3
17 18 19 18 18 21 20 20 22 25 29 24 6 2 1 1 2 1 3 4 4 4 4 4 3 3 4 3 2 2 2 1 0 2 2 3 2 3 1 6 4 4 3 3 2 2 3
18 19 19 20 18 18 18 17 19 22 25 18 7 3 0 3 1 2 2 2 2 2 2 3 2 5 4 3 3 3 3 3 3 1 2 1 3 4 3 1 1 2 3 4 4 2 1
18 17 18 20 20 22 22 18 17 17 17 9 5 3 1 1 4 4 2 3 3 4 4 4 5 6 3 3 3 4 4 1 4 3 2 1 2 3 2 2 2 4 3 1 1 0 6
18 19 20 20 21 20 21 23 22 19 13 7 3 3 1 2 2 3 4 4 3 3 3 4 2 2 3 4 6 3 4 3 4 3 4 3 2 5 3 2 2 3 4 5 4 3 3
18 19 19 20 20 20 20 20 22 20 20 5 3 3 2 2 5 5 3 3 5 4 5 6 3 10 7 4 3 5 4 2 4 3 2 3 4 3 7 7 4 6 6 8 9 5 5
18 19 20 20 21 21 21 19 20 21 20 7 2 3 1 4 2 4 7 5 8 4 8 6 8 4 12 7 6 5 3 4 2 3 3 1 2 2 4 1 4 7 10 10 10 7 8
20 20 21 21 21 20 20 21 19 19 17 5 4 3 3 5 3 5 7 7 8 5 7 3 10 6 8 17 7 1 0 1 1 4 6 2 2 1 3 3 6 9 7 13 8 5 6
22 22 23 22 23 22 21 21 20 18 17 15 13 9 3 8 12 13 7 5 8 10 5 1 6 6 3 8 10 7 5 2 1 0 1 4 3 1 3 3 4 2 2 4 11 4 11
23 24 24 24 24 25 24 22 21 21 20 21 18 5 4 7 9 17 16 14 8 4 6 7 7 1 11 5 2 2 2 2 3 1 3 2 3 3 3 3 6 1 2 2 4 4 12
24 25 26 26 27 27 26 25 24 22 23 23 21 15 8 6 11 13 16 21 17 12 5 4 1 4 2 3 3 6 6 4 4 3 1 2 2 3 1 3 4 2 1 0 0 6 5
26 28 28 27 29 28 29 28 27 25 26 25 23 18 10 6 10 12 9 13 12 10 5 2 5 6 2 4 6 5 6 4 6 8 6 5 3 7 6 3 7 1 3 2 2 4 3
29 30 31 30 31 32 32 31 28 29 30 27 21 19 17 6 14 13 14 15 3 10 14 4 5 4 4 7 6 5 6 8 5 6 7 9 10 5 4 4 7 7 5 4 1 1 4
31 32 33 33 33 34 35 32 31 32 31 29 30 25 25 17 16 27 33 37 30 25 8 9 4 5 7 5 5 3 3 4 6 5 2 5 6 5 9 5 4 12 3 4 4 4 2
Wind_Direction
35 34 30 27 24 18 15 8 6 7 3 354 343 321 299 295 303 312 321 326 328 324 310 309 318 329 338 314 341 325 330 335 353 41 358 340 251 226 201 243 192 220 179 216 221 273 312
35 27 27 23 19 14 11 8 5 5 3 357 348 331 298 286 291 299 308 313 323 327 316 291 300 323 300 312 321 333 328 353 23 348 194 80 25 355 359 269 209 195 241 254 221 241 264
32 24 21 19 17 14 10 6 4 3 2 357 350 341 322 290 289 297 304 310 319 325 313 299 268 291 249 309 329 346 13 24 2 43 183 132 91 213 162 217 232 174 167 255 224 219 256
23 21 16 14 13 10 10 4 2 1 359 357 351 343 339 321 302 299 300 307 313 319 305 294 236 201 280 293 318 13 16 349 7 259 145 167 154 105 37 151 206 187 213 203 202 205 225
20 19 14 9 9 9 6 4 2 2 359 356 352 344 341 333 319 308 304 306 309 304 292 216 167 239 302 286 291 332 95 173 296 192 225 170 202 243 196 183 145 185 222 215 226 211 210
21 19 17 14 7 8 6 4 3 2 1 358 352 346 340 338 332 322 315 306 297 216 122 144 222 240 172 346 217 284 146 58 285 163 166 205 225 224 203 214 220 129 252 219 229 177 216
17 14 13 13 8 6 6 6 4 2 1 0 354 350 345 342 337 337 340 300 204 192 204 269 320 272 330 93 160 245 249 246 217 242 255 179 246 209 205 180 40 140 213 275 269 215 220
18 12 8 9 7 5 1 6 3 4 2 1 356 351 347 345 340 354 4 60 74 77 300 188 248 272 261 177 258 230 242 222 331 55 312 267 241 196 326 226 222 211 231 272 274 225 215
14 11 7 5 3 4 1 0 3 4 2 2 360 353 350 343 355 30 59 63 53 97 274 276 214 267 311 179 277 201 191 202 201 248 279 26 357 153 160 189 201 229 212 240 294 168 225
12 11 6 4 359 357 2 359 358 359 1 0 0 353 351 352 67 15 73 23 19 42 296 202 183 174 175 223 256 121 199 270 222 298 257 312 46 244 205 175 219 190 222 239 298 200 190
22 15 19 22 25 17 6 356 358 357 358 358 358 352 351 5 329 337 46 70 56 226 325 7 301 79 277 239 331 159 199 212 289 283 232 63 244 237 274 216 202 37 304 228 233 221 216
9 9 7 10 14 11 8 8 2 358 356 354 356 350 349 353 356 332 324 97 176 122 274 345 301 323 316 224 300 314 220 216 297 240 237 35 193 243 315 253 260 312 274 168 151 221 204
348 351 357 360 1 4 1 1 360 358 353 352 354 347 339 346 340 323 320 276 58 98 108 330 327 340 339 301 307 354 328 185 263 215 210 196 190 207 229 234 215 225 193 170 163 199 170
329 330 334 339 347 351 354 355 355 354 353 350 351 350 338 350 329 317 322 261 83 205 241 113 287 293 278 359 214 322 274 263 214 247 198 222 240 195 158 249 317 197 267 189 331 202 137
347 336 333 329 330 336 340 345 349 349 351 348 349 350 46 351 347 342 289 287 232 206 159 266 251 279 266 167 284 320 292 298 277 291 296 281 206 134 292 183 212 156 230 33 112 28 242
360 349 345 335 331 328 329 333 342 344 347 345 336 339 22 39 16 23 291 256 222 193 153 200 243 195 286 304 299 317 317 108 307 234 289 241 259 162 139 256 138 256 114 230 197 224 254
357 353 353 348 338 330 327 326 333 339 345 345 326 304 143 129 94 117 251 265 255 216 178 190 217 241 236 284 273 264 278 219 352 343 260 297 277 141 214 213 196 164 193 186 284 289 297
352 356 354 351 344 1 343 335 328 337 346 351 336 282 81 144 237 127 234 280 307 224 181 235 249 233 236 200 245 262 254 242 146 152 279 51 303 254 217 88 323 308 296 250 239 201 264
359 351 347 346 346 345 339 338 339 330 343 346 319 281 330 228 225 200 212 244 233 198 232 191 230 226 200 241 257 219 232 172 168 192 192 137 223 287 208 200 178 235 206 186 138 256 213
353 351 351 347 341 340 344 332 322 340 321 331 280 288 214 202 325 229 203 212 233 200 234 216 254 167 185 238 225 284 242 188 191 214 153 192 247 254 287 338 327 231 202 202 224 217 177
351 346 343 342 342 340 334 338 339 325 344 275 210 251 336 230 217 218 236 209 182 201 214 201 224 219 196 233 219 231 234 219 192 170 170 243 262 211 261 255 254 267 251 197 205 240 236
344 344 340 335 336 334 335 330 329 336 326 243 268 250 204 289 274 215 197 223 214 208 174 206 221 205 203 225 221 212 198 213 241 166 211 222 285 310 281 229 239 264 243 232 236 244 254
333 333 335 335 330 327 329 322 321 324 336 280 263 255 261 228 239 221 221 211 218 181 222 218 200 181 209 236 208 120 267 43 215 195 189 204 250 286 271 357 308 272 257 208 190 208 217
323 324 325 326 327 322 319 317 314 306 305 305 297 306 236 255 232 234 256 230 233 211 242 191 197 183 163 118 107 106 85 61 234 86 251 166 184 227 287 296 250 31 61 275 222 217 209
318 318 315 317 317 317 313 310 308 301 299 295 292 281 280 260 241 244 242 260 277 263 233 236 210 243 153 141 136 192 188 233 188 38 208 245 181 220 261 249 308 225 224 155 183 279 208
312 312 311 310 310 308 307 304 300 295 290 288 283 274 262 282 248 241 246 243 247 252 253 217 101 165 189 180 166 211 213 194 199 158 94 150 195 228 168 238 267 40 54 187 175 264 180
309 308 305 304 304 302 303 297 295 296 293 283 271 262 274 263 273 254 235 242 232 225 249 131 165 179 199 183 200 196 223 166 193 184 174 166 188 209 198 249 282 80 123 140 224 353 193
307 305 303 301 301 301 299 291 287 293 290 283 272 259 236 264 271 272 283 271 209 219 233 136 140 206 169 196 197 195 214 206 178 150 177 178 164 186 165 193 254 157 139 204 17 8 177
305 304 300 299 298 298 297 292 288 289 280 276 272 265 253 241 270 291 279 268 279 289 252 192 254 170 183 185 206 166 189 176 183 208 173 216 220 190 196 197 133 173 153 122 140 131 188